Miscellaneous Local Product
Issued by NWS Hastings, NE

Home | Current Version | Previous Version | Graphics & Text | Print | Product List | Glossary On
Versions: 1 2 3 4 5 6 7 8 9 10 11 12 13 14 15 16 17 18 19 20 21 22 23 24 25 26 27 28 29 30 31 32 33 34 35 36 37 38 39 40 41 42 43 44 45 46 47 48 49 50
000
AXUS43 KGID 240702
MISGRI

GID CWA HOURLY WEATHER ROUNDUP
NATIONAL WEATHER SERVICE HASTINGS NE
200 AM CDT WED MAY 24 2017

NOTE: "FAIR" INDICATES FEW OR NO CLOUDS BELOW 12,000 FEET WITH NO
SIGNIFICANT WEATHER AND/OR OBSTRUCTIONS TO VISIBILITY.

...SOUTH CENTRAL NEBRASKA...

CITY           SKY/WX    TMP DP  RH WIND       PRES   REMARKS
GRAND ISLAND   CLOUDY    50  43  77 N15       29.90F
HASTINGS       MOCLDY    50  42  74 N13       29.90F
KEARNEY        CLOUDY    48  39  71 NW8       29.92F
ORD            MOCLDY    47  41  80 NW7       29.90F
YORK           MOCLDY    48  45  87 NW7       29.87F
AURORA         CLOUDY    50  44  81 N13       29.88F
LEXINGTON      PTCLDY    39  37  92 W8        29.93F WCI  34
HOLDREGE       CLEAR     45  38  78 NW7       29.92F
HEBRON         PTCLDY    49  45  85 NW7       29.86F

...NEBRASKA PANHANDLE...

CITY           SKY/WX    TMP DP  RH WIND       PRES   REMARKS
CHADRON        CLOUDY    43  36  76 SW6       29.95F
ALLIANCE       CLOUDY    36  32  85 CALM      29.96F
SCOTTSBLUFF    CLOUDY    44  38  79 CALM      29.98F
SIDNEY         CLOUDY    34  32  92 W3        30.00F

...WESTERN AND NORTH CENTRAL NEBRASKA...

CITY           SKY/WX    TMP DP  RH WIND       PRES   REMARKS
VALENTINE      CLEAR     39  34  82 NW7       29.94F WCI  34
AINSWORTH      CLEAR     41  39  93 NW5       29.92F
ONEILL         CLOUDY    46  42  85 NW6       29.90F
BROKEN BOW     CLOUDY    49  41  74 N8        29.92F
IMPERIAL       CLEAR     40  34  79 N6        29.99F
NORTH PLATTE   CLEAR     36  34  92 NW6       29.96F WCI  31
MCCOOK         CLEAR     41  37  86 N9        29.96F

...EASTERN NEBRASKA...

CITY           SKY/WX    TMP DP  RH WIND       PRES   REMARKS
NORFOLK        CLEAR     47  43  86 NW13      29.85F
SO SIOUX CITY  PTCLDY    47  47 100 NW9       29.82F
TEKAMAH        CLEAR     49  46  90 NW10      29.80F
ALBION         CLOUDY    50  43  75 N8        29.88F
OMAHA EPPLEY   CLOUDY    51  46  83 NW9       29.79F
OFFUTT AFB     CLOUDY    51  47  86 NW9       29.78F
MILLARD        PTCLDY    52  48  86 NW6       29.80F
LINCOLN        PTCLDY    51  46  83 NW14      29.84F
NEBRASKA CITY  CLEAR     51  46  84 N13       29.79F
BEATRICE       MOCLDY    50  46  86 NW12G20   29.83S
FALLS CITY     PTCLDY    50  46  86 NW9       29.78F

...NORTHERN KANSAS...

CITY           SKY/WX    TMP DP  RH WIND       PRES   REMARKS
GOODLAND       CLEAR     40  34  79 CALM      29.98F
HILL CITY      CLEAR     42  39  89 N9        29.95F
NORTON         SUNNY     39  36  87 NW7       29.94F WCI  34
PHILLIPSBURG   MOCLDY    46  45  93 W8        29.93F
SMITH CENTER   PTCLDY    39  37  93 W5        29.92F
HAYS           PTCLDY    42  39  89 NW7       29.93F
RUSSELL        CLEAR     47  42  83 NW9       29.90F
CONCORDIA      PTCLDY    48  44  86 NW9       29.87F
SALINA         CLEAR     50  44  80 NW9       29.87F
TOPEKA         CLEAR     50  47  89 W6        29.79F



USA.gov is the U.S. government's official web portal to all federal, state and local government web resources and services.